EW9119 Weather Reports


time (UTC)temp
C
wind
direction
speed
KPH
gust
KPH
rain 1hr
cm
rain 24hr
cm
rain mn
cm
humidity
%
barometer
mb
20260508231512 17 250 0.0 0.0 0.00 0.00 0.00 57 1012.6
20260508230007 18 234 0.0 0.0 0.00 0.00 0.00 50 1012.4
20260508224508 18 349 0.0 0.0 0.00 0.00 0.00 52 1012.3
20260508223059 18 349 0.0 0.0 0.00 0.00 0.00 50 1012.4
20260508221555 19 232 0.0 0.0 0.00 0.00 0.00 48 1012.1
20260508220051 19 266 0.0 0.0 0.00 0.00 0.00 46 1012.1
20260508214559 19 261 0.0 1.6 0.00 0.00 0.00 44 1012.5
20260508213041 19 32 0.0 0.0 0.00 0.00 0.00 40 1012.2
20260508211536 19 293 0.0 1.6 0.00 0.00 0.00 36 1012.3
20260508210036 20 313 0.0 0.0 0.00 0.00 0.00 37 1012.4
20260508204527 20 316 0.0 1.6 0.00 0.00 0.00 37 1012.8
20260508203024 20 269 0.0 0.0 0.00 0.00 0.00 38 1012.9
20260508201520 19 69 0.0 0.0 0.00 0.00 0.00 38 1013.1
20260508200020 19 82 0.0 9.7 0.00 0.00 0.00 36 1013.1
20260508194510 19 88 0.0 0.0 0.00 0.05 0.00 34 1013.2
20260508193006 19 274 0.0 0.0 0.00 0.05 0.00 35 1013.5
20260508191502 19 38 0.0 1.6 0.00 0.05 0.00 35 1013.7
20260508190107 20 98 0.0 0.0 0.00 0.05 0.00 33 1013.9
20260508184558 20 347 0.0 1.6 0.00 0.05 0.00 36 1014.1
20260508183108 20 121 0.0 0.0 0.00 0.05 0.00 35 1014.2
20260508181544 20 167 0.0 0.0 0.00 0.05 0.00 33 1014.4
20260508180055 21 204 0.0 0.0 0.00 0.05 0.00 34 1014.7
20260508174543 21 342 0.0 0.0 0.00 0.08 0.00 34 1014.9
20260508173030 21 130 0.0 1.6 0.00 0.08 0.00 39 1015.1
20260508171527 20 49 0.0 0.0 0.00 0.08 0.00 37 1015.1
20260508170031 20 166 0.0 0.0 0.00 0.08 0.00 44 1015.4
20260508164524 20 355 0.0 0.0 0.00 0.20 0.00 39 1015.7
20260508163016 19 336 0.0 0.0 0.00 0.20 0.00 44 1016.1
20260508161511 18 129 0.0 1.6 0.00 0.20 0.00 43 1016.3
20260508160005 18 100 0.0 0.0 0.00 0.20 0.00 36 1016.5
20260508154601 18 169 0.0 0.0 0.00 0.20 0.00 46 1016.6
20260508153058 18 67 0.0 0.0 0.00 0.20 0.00 46 1016.7
20260508151552 18 327 0.0 0.0 0.00 0.20 0.00 55 1016.8
20260508150046 17 136 0.0 0.0 0.00 0.20 0.00 53 1016.9
20260508144548 16 323 0.0 0.0 0.00 0.20 0.00 61 1016.9
20260508143038 16 34 0.0 0.0 0.00 0.20 0.00 60 1016.9
20260508141535 15 265 0.0 0.0 0.00 0.20 0.00 63 1016.9
20260508140029 14 301 0.0 0.0 0.00 0.20 0.00 59 1016.8
20260508134524 13 271 0.0 0.0 0.00 0.23 0.00 1 1016.7
20260508133031 11 121 0.0 0.0 0.00 0.23 0.00 1 1016.7
20260508131516 11 132 0.0 0.0 0.00 0.23 0.00 1 1016.7
20260508130027 11 74 0.0 0.0 0.00 0.23 0.00 1 1016.6
20260508124507 10 316 0.0 0.0 0.00 0.33 0.00 1 1016.6
20260508123007 9 5 0.0 0.0 0.00 0.33 0.00 1 1016.6
20260508121609 7 88 0.0 0.0 0.00 0.33 0.00 1 1016.3
20260508120108 6 312 0.0 0.0 0.00 0.33 0.00 1 1016.1
20260508114557 5 331 0.0 0.0 0.00 0.36 0.00 1 1015.8
20260508113048 4 226 0.0 0.0 0.00 0.36 0.00 1 1015.7
20260508111542 4 257 0.0 0.0 0.00 0.36 0.00 1 1015.4
20260508110036 4 254 0.0 0.0 0.00 0.36 0.00 1 1015.2
20260508104535 4 258 0.0 0.0 0.00 0.36 0.00 1 1015.0
20260508103034 4 268 0.0 0.0 0.00 0.36 0.00 1 1014.8
20260508101523 5 287 0.0 0.0 0.00 0.36 0.00 1 1014.6
20260508100018 5 287 0.0 0.0 0.00 0.36 0.00 1 1014.4
20260508094515 5 195 0.0 0.0 0.00 0.36 0.00 1 1014.2
20260508093010 5 195 0.0 0.0 0.00 0.36 0.00 1 1014.0
20260508091511 5 195 0.0 0.0 0.00 0.36 0.00 1 1014.0
20260508090003 6 195 0.0 0.0 0.00 0.36 0.00 1 1013.8
20260508084559 6 195 0.0 0.0 0.00 0.36 0.00 1 1013.7
20260508083052 6 195 0.0 0.0 0.00 0.36 0.00 1 1013.5
20260508081548 6 195 0.0 0.0 0.00 0.36 0.00 1 1013.4
20260508080044 6 195 0.0 0.0 0.00 0.36 0.00 1 1013.3
20260508074539 6 195 0.0 0.0 0.00 0.36 0.00 1 1013.0
20260508073040 6 195 0.0 0.0 0.00 0.36 0.00 1 1013.0
20260508071534 7 195 0.0 0.0 0.00 0.36 0.00 1 1012.9
20260508070027 7 195 0.0 0.0 0.00 0.36 0.00 1 1012.7
20260508064527 7 195 0.0 0.0 0.00 0.36 0.00 1 1012.6
20260508063018 7 195 0.0 0.0 0.00 0.36 0.00 1 1012.7
20260508061513 7 195 0.0 0.0 0.00 0.36 0.00 1 1012.7
20260508060008 7 195 0.0 0.0 0.00 0.36 0.00 1 1012.7
20260508054505 7 195 0.0 0.0 0.00 0.38 0.00 1 1012.6
20260508053108 7 195 0.0 0.0 0.00 0.38 0.00 1 1012.7
20260508051556 7 195 0.0 0.0 0.00 0.38 0.00 1 1012.5
20260508050051 8 195 0.0 0.0 0.00 0.38 0.00 1 1012.4
20260508044546 8 195 0.0 0.0 0.00 0.38 0.00 1 1012.2
20260508043055 8 195 0.0 0.0 0.00 0.38 0.00 1 1012.1
20260508041547 8 195 0.0 0.0 0.00 0.38 0.00 1 1011.9
20260508040038 8 195 0.0 0.0 0.00 0.38 0.00 1 1012.0
20260508034530 8 195 0.0 0.0 0.00 0.46 0.38 1 1011.8
20260508033024 9 195 0.0 0.0 0.00 0.46 0.38 1 1011.7
20260508031520 9 195 0.0 0.0 0.00 0.46 0.38 1 1011.4
20260508030015 10 195 0.0 0.0 0.00 0.46 0.38 1 1011.4
20260508024510 10 195 0.0 0.0 0.00 0.51 0.38 1 1011.4
20260508023007 10 195 0.0 0.0 0.00 0.51 0.38 1 1011.0
20260508021501 10 195 0.0 0.0 0.00 0.51 0.38 1 1010.8
20260508020103 11 195 0.0 0.0 0.00 0.51 0.38 1 1010.5
20260508014556 11 195 0.0 0.0 0.00 0.56 0.38 1 1010.3
20260508013056 11 195 0.0 0.0 0.00 0.56 0.38 1 1010.1
20260508011549 12 195 0.0 0.0 0.00 0.56 0.38 1 1009.9
20260508010040 12 195 0.0 0.0 0.00 0.56 0.38 1 1009.7
20260508004536 12 195 0.0 0.0 0.00 0.61 0.38 1 1009.6
20260508003032 13 195 0.0 0.0 0.00 0.61 0.38 1 1009.6
20260508001549 13 195 0.0 0.0 0.00 0.61 0.38 1 1009.6
20260508000023 13 240 0.0 0.0 0.00 0.61 0.38 1 1009.4
20260507234518 13 254 0.0 0.0 0.00 0.61 0.38 1 1009.4
20260507233017 13 263 0.0 0.0 0.00 0.61 0.38 1 1009.1